DW1958 Weather Reports


Display with metric or nautical units.
time (UTC)temp
F
wind
direction
speed
MPH
gust
MPH
rain 1hr
in
rain 24hr
in
rain mn
in
humidity
%
barometer
mb
20260509111521 36 0 0.0 0.0 0.03 0.04 0.03 93 995.1
20260509105721 36 0 0.0 0.0 0.02 0.03 0.02 93 995.3
20260509103921 36 0 0.0 0.0 0.01 0.02 0.01 92 995.4
20260509103021 36 0 0.0 0.0 0.00 0.01 0.00 92 995.4
20260509102122 36 0 0.0 0.0 0.00 0.01 0.00 91 995.4
20260509101221 36 0 0.0 0.0 0.00 0.01 0.00 91 995.5
20260509100321 36 0 0.0 0.0 0.00 0.01 0.00 91 995.4
20260509095421 36 0 0.0 0.0 0.00 0.01 0.00 91 995.5
20260509093621 37 0 0.0 0.0 0.00 0.01 0.00 91 995.6
20260509092721 37 0 0.0 0.0 0.00 0.01 0.00 91 995.7
20260509091821 37 0 0.0 0.0 0.00 0.01 0.00 91 995.7
20260509090921 37 0 0.0 2.0 0.00 0.01 0.00 91 995.7
20260509090021 37 0 0.0 2.0 0.00 0.01 0.00 90 995.8
20260509085121 37 0 0.0 0.0 0.00 0.01 0.00 90 995.8
20260509084222 37 0 0.0 0.0 0.00 0.01 0.00 90 995.9
20260509083322 37 0 0.0 0.0 0.00 0.01 0.00 90 996.1
20260509082422 37 0 0.0 0.0 0.00 0.01 0.00 89 996.1
20260509081521 37 0 0.0 0.0 0.00 0.01 0.00 89 996.2
20260509080621 37 0 0.0 0.0 0.00 0.01 0.00 89 996.2
20260509074821 38 0 0.0 0.0 0.00 0.01 0.01 88 996.4
20260509072121 38 0 0.0 0.0 0.00 0.01 0.01 87 996.5
20260509071221 38 0 0.0 0.0 0.00 0.01 0.01 87 996.5
20260509070321 39 0 0.0 0.0 0.00 0.01 0.01 85 996.6
20260509065421 39 0 0.0 0.0 0.00 0.01 0.01 84 996.6
20260509063621 40 0 0.0 2.0 0.00 0.01 0.01 84 996.5
20260509062721 40 0 0.0 2.0 0.00 0.01 0.01 83 996.7
20260509061822 41 328 1.0 4.0 0.00 0.01 0.01 82 996.8
20260509060921 42 0 0.0 4.0 0.00 0.01 0.01 82 996.8
20260509060021 42 0 0.0 0.0 0.00 0.01 0.01 82 996.7
20260509055121 42 0 0.0 4.0 0.00 0.01 0.01 82 996.7
20260509053323 43 0 0.0 5.0 0.00 0.01 0.01 81 996.8
20260509052421 43 0 0.0 3.0 0.00 0.01 0.01 80 996.9
20260509051521 43 0 0.0 4.0 0.00 0.01 0.01 79 996.8
20260509050621 44 0 0.0 4.0 0.00 0.01 0.01 79 996.9
20260509045723 44 0 0.0 3.0 0.00 0.01 0.01 78 997.0
20260509044822 44 0 0.0 0.0 0.00 0.01 0.01 77 997.0
20260509043921 44 0 0.0 6.0 0.00 0.01 0.01 78 997.0
20260509042121 45 0 0.0 3.0 0.00 0.01 0.01 75 997.1
20260509041221 45 294 1.0 4.0 0.00 0.01 0.01 75 997.1
20260509035421 45 273 1.0 8.0 0.00 0.01 0.01 77 997.4
20260509034522 45 260 1.0 7.0 0.00 0.01 0.01 77 997.5
20260509032721 45 263 2.0 7.0 0.00 0.01 0.01 76 997.7
20260509031822 45 259 2.0 8.0 0.00 0.02 0.01 76 997.7
20260509030922 45 278 2.0 9.0 0.00 0.03 0.01 76 997.8
20260509030021 46 272 2.0 6.0 0.01 0.04 0.01 75 997.8
20260509025121 46 264 2.0 10.0 0.01 0.05 0.01 74 997.9
20260509024221 46 266 4.0 12.0 0.01 0.05 0.01 75 998.0
20260509023322 46 268 3.0 13.0 0.01 0.05 0.01 77 998.0
20260509022422 46 263 3.0 11.0 0.01 0.05 0.01 78 998.1
20260509021522 46 264 3.0 11.0 0.01 0.05 0.01 76 998.0
20260509020621 48 255 5.0 13.0 0.00 0.04 0.00 67 998.1
20260509015721 49 264 5.0 13.0 0.00 0.04 0.00 63 998.1
20260509014822 50 282 1.0 11.0 0.00 0.04 0.00 56 998.3
20260509013922 49 0 0.0 0.0 0.00 0.04 0.00 57 998.2
20260509013022 49 0 0.0 0.0 0.00 0.04 0.00 57 998.3
20260509012122 49 0 0.0 0.0 0.00 0.04 0.00 59 998.4
20260509011221 49 63 1.0 5.0 0.00 0.04 0.00 55 998.7
20260509010322 49 59 1.0 5.0 0.00 0.04 0.00 57 998.7
20260509005422 49 46 1.0 6.0 0.00 0.04 0.00 59 998.8
20260509003621 49 64 1.0 5.0 0.00 0.04 0.00 60 999.0
20260509002722 49 64 2.0 5.0 0.00 0.04 0.00 62 999.2
20260509001822 48 61 1.0 4.0 0.00 0.04 0.00 62 999.3
20260509000922 47 45 2.0 4.0 0.00 0.04 0.00 64 999.5
20260509000022 47 56 3.0 7.0 0.00 0.04 0.00 64 999.6
20260508235122 47 67 4.0 10.0 0.00 0.04 0.00 65 999.8
20260508234222 47 82 4.0 12.0 0.00 0.04 0.00 66 1000.1
20260508233322 47 88 4.0 11.0 0.00 0.04 0.00 65 1000.2
20260508230622 48 84 2.0 7.0 0.00 0.04 0.00 60 1000.3
20260508225722 48 85 3.0 7.0 0.00 0.04 0.00 62 1000.3
20260508223922 47 47 1.0 6.0 0.00 0.04 0.00 64 1000.5
20260508223022 47 30 2.0 6.0 0.00 0.04 0.00 65 1000.7
20260508222122 47 41 2.0 10.0 0.00 0.04 0.00 65 1000.7
20260508221222 48 47 1.0 5.0 0.00 0.04 0.00 62 1000.8
20260508220322 48 350 1.0 7.0 0.00 0.04 0.00 62 1000.8
20260508215422 48 338 2.0 7.0 0.00 0.04 0.00 62 1000.9
20260508214522 48 344 2.0 7.0 0.00 0.04 0.00 68 1001.0
20260508213622 48 356 1.0 6.0 0.00 0.04 0.00 68 1001.2
20260508212722 48 348 2.0 7.0 0.00 0.04 0.00 66 1001.3
20260508211822 48 336 2.0 6.0 0.00 0.04 0.00 65 1001.4
20260508210922 48 324 2.0 7.0 0.00 0.04 0.00 64 1001.5
20260508204222 48 88 1.0 4.0 0.00 0.04 0.00 60 1002.0
20260508203322 48 59 1.0 4.0 0.00 0.04 0.00 60 1002.0
20260508201522 49 53 2.0 6.0 0.00 0.04 0.00 63 1002.2
20260508200622 48 26 2.0 6.0 0.00 0.04 0.00 63 1002.4
20260508194822 47 49 3.0 7.0 0.00 0.04 0.00 63 1002.7
20260508193022 46 51 3.0 7.0 0.00 0.04 0.00 67 1002.9
20260508192122 45 34 2.0 9.0 0.00 0.04 0.00 68 1003.1
20260508191222 45 41 3.0 7.0 0.00 0.04 0.00 72 1003.2
20260508190322 44 56 4.0 9.0 0.00 0.04 0.00 70 1003.3
20260508183622 43 59 3.0 7.0 0.00 0.04 0.00 75 1003.7
20260508181822 42 64 3.0 11.0 0.00 0.04 0.00 77 1003.9
20260508180922 42 51 2.0 10.0 0.00 0.04 0.00 81 1004.1
20260508180022 41 56 2.0 10.0 0.00 0.04 0.00 83 1004.2
20260508174222 40 50 1.0 5.0 0.00 0.04 0.00 88 1004.4
20260508173322 39 0 0.0 4.0 0.00 0.04 0.00 91 1004.6
20260508171522 37 356 1.0 3.0 0.00 0.04 0.00 94 1004.8
20260508170622 37 11 1.0 5.0 0.00 0.04 0.00 95 1004.8
20260508165722 36 25 1.0 5.0 0.00 0.04 0.00 95 1004.9
20260508164822 36 13 1.0 3.0 0.00 0.04 0.00 95 1005.0
20260508163922 35 27 1.0 5.0 0.00 0.04 0.00 95 1005.1
20260508163022 34 0 0.0 4.0 0.00 0.04 0.00 95 1005.2
20260508162122 34 0 0.0 4.0 0.00 0.04 0.00 95 1005.3
20260508161222 33 0 0.0 3.0 0.00 0.04 0.00 95 1005.5
20260508160322 33 0 0.0 3.0 0.00 0.04 0.00 95 1005.6
20260508155422 32 0 0.0 1.0 0.00 0.04 0.00 95 1005.7
20260508154522 32 0 0.0 0.0 0.00 0.04 0.00 95 1005.8
20260508153622 32 0 0.0 0.0 0.00 0.04 0.00 95 1005.9
20260508152722 32 0 0.0 0.0 0.00 0.04 0.00 95 1006.0
20260508151822 32 0 0.0 0.0 0.00 0.04 0.00 95 1006.1
20260508150922 31 0 0.0 0.0 0.00 0.04 0.00 94 1006.1
20260508150022 31 0 0.0 0.0 0.00 0.04 0.00 95 1006.2
20260508145122 30 0 0.0 2.0 0.00 0.04 0.00 94 1006.3
20260508144222 30 0 0.0 0.0 0.00 0.04 0.00 94 1006.4
20260508143322 30 0 0.0 0.0 0.00 0.04 0.00 94 1006.5
20260508142422 30 0 0.0 0.0 0.00 0.04 0.00 94 1006.6
20260508140622 30 0 0.0 0.0 0.00 0.04 0.00 94 1006.9
20260508135722 30 0 0.0 0.0 0.00 0.04 0.00 94 1007.0
20260508134822 30 0 0.0 0.0 0.00 0.04 0.00 94 1007.1
20260508133922 30 0 0.0 0.0 0.00 0.04 0.00 94 1007.1
20260508133022 30 0 0.0 0.0 0.00 0.04 0.00 94 1007.1
20260508132122 30 0 0.0 0.0 0.00 0.04 0.00 94 1007.2
20260508131222 31 0 0.0 0.0 0.00 0.04 0.00 94 1007.3
20260508130322 31 0 0.0 0.0 0.00 0.04 0.00 94 1007.4
20260508125422 31 0 0.0 0.0 0.00 0.04 0.00 94 1007.4
20260508124522 31 0 0.0 0.0 0.00 0.04 0.00 94 1007.6
20260508123622 31 0 0.0 0.0 0.00 0.04 0.00 94 1007.6
20260508122722 31 0 0.0 0.0 0.00 0.04 0.00 94 1007.6
20260508121822 31 0 0.0 0.0 0.00 0.04 0.00 94 1007.7
20260508120922 31 0 0.0 0.0 0.00 0.04 0.00 94 1007.8
20260508120022 31 0 0.0 0.0 0.00 0.04 0.00 94 1007.9
20260508115122 31 0 0.0 1.0 0.00 0.04 0.00 94 1008.0
20260508114222 31 0 0.0 0.0 0.00 0.04 0.00 94 1008.0
20260508113322 31 0 0.0 0.0 0.00 0.04 0.00 94 1008.2
20260508112422 31 0 0.0 0.0 0.00 0.04 0.00 94 1008.3